Weather History for Detroit Metro, MI

Change the Weather History Date:

Tuesday, February 4, 2014

  Actual Average Record
Temperature  
Mean Temperature 16 °F 26 °F  
Max Temperature 24 °F 33 °F 63 °F (1890)
Min Temperature 7 °F 19 °F -10 °F (1918)
Degree Days  
Heating Degree Days 49 39  
Month to date heating degree days 170 156  
Since 1 July heating degree days 4148 3676  
Cooling Degree Days 0 0  
Month to date cooling degree days 0 0  
Year to date cooling degree days 0 0  
Moisture  
Dew Point 11 °F    
Average Humidity 73    
Maximum Humidity 91    
Minimum Humidity 55    
Precipitation  
Precipitation 0.02 in 0.07 in 0.98 in (1971)
Month to date precipitation 0.77 0.26  
Year to date precipitation 3.69 2.22  
Snow  
Snow 0.40 in 0.40 in 10.00 in (1900)
Month to date snowfall 4.5 1.5  
Since 1 July snowfall 60.3 25.2  
Snow Depth 12.00 in    
Sea Level Pressure  
Sea Level Pressure 30.37 in    
Wind  
Wind Speed 3 mph (NE)    
Max Wind Speed 15 mph    
Max Gust Speed 22 mph    
Visibility 7 miles    
Events Snow    
T = Trace of Precipitation, MM = Missing Value Source: NWS Daily Summary

Daily Weather History Graph

Daily Weather History Graph

Search for Another Location

Airport:

Trip Planner

Search our weather history database for the weather conditions in past years. The results will help you decide how hot, cold, wet, or windy it might be!

Date:

Astronomy

Feb. 04, 2014 Rise Set
Actual Time 7:43 AM EST 5:51 PM EST
Civil Twilight 7:13 AM EST 6:21 PM EST
Nautical Twilight 6:40 AM EST 6:54 PM EST
Astronomical Twilight 6:07 AM EST 7:27 PM EST
Moon 10:13 AM EST (2/4) 11:52 PM EST (2/4)
Length of Visible Light 11h 07m
Length of Day
10h 08m
Waxing Crescent, 29% of the Moon is Illuminated
Feb 4
Waxing Crescent
Feb 6
First Quarter
Feb 14
Full
Feb 22
Last Quarter
Mar 1
New

Hourly Weather History & Observations

Time (EST) Temp. Windchill Dew Point Humidity Pressure Visibility Wind Dir Wind Speed Gust Speed Precip Events Conditions
12:53 AM 10.0 °F 1.8 °F 6.1 °F 84% 30.42 in 8.0 mi South 4.6 mph - N/A   Partly Cloudy
1:53 AM 9.0 °F - 5.0 °F 84% 30.43 in 9.0 mi Calm Calm - N/A   Scattered Clouds
2:53 AM 9.0 °F - 5.0 °F 84% 30.43 in 8.0 mi Calm Calm - N/A   Scattered Clouds
3:53 AM 10.0 °F - 6.1 °F 84% 30.43 in 6.0 mi Calm Calm - N/A   Mostly Cloudy
4:53 AM 9.0 °F - 6.1 °F 88% 30.44 in 8.0 mi Calm Calm - N/A   Overcast
5:53 AM 8.1 °F - 3.9 °F 83% 30.47 in 8.0 mi Calm Calm - N/A   Overcast
6:53 AM 9.0 °F - 6.1 °F 88% 30.47 in 7.0 mi Calm Calm - N/A   Overcast
7:53 AM 10.0 °F - 6.1 °F 84% 30.46 in 6.0 mi Calm Calm - N/A   Overcast
8:53 AM 12.9 °F - 8.1 °F 81% 30.47 in 5.0 mi Calm Calm - N/A   Haze
9:53 AM 15.1 °F - 10.9 °F 84% 30.48 in 6.0 mi Calm Calm - N/A   Overcast
10:53 AM 18.0 °F - 12.9 °F 81% 30.47 in 5.0 mi Calm Calm - N/A   Haze
11:53 AM 21.0 °F - 12.9 °F 71% 30.45 in 4.0 mi Calm Calm - N/A   Haze
12:53 PM 23.0 °F 15.8 °F 12.9 °F 65% 30.40 in 9.0 mi East 5.8 mph - N/A   Overcast
1:53 PM 23.0 °F - 12.9 °F 65% 30.38 in 10.0 mi Calm Calm - N/A   Overcast
2:53 PM 24.1 °F 17.0 °F 12.0 °F 60% 30.36 in 10.0 mi ESE 5.8 mph - N/A   Overcast
3:53 PM 24.1 °F 16.0 °F 10.9 °F 57% 30.38 in 10.0 mi NNE 6.9 mph - N/A   Overcast
4:53 PM 23.0 °F 17.0 °F 10.9 °F 60% 30.37 in 10.0 mi NE 4.6 mph - N/A   Overcast
5:53 PM 23.0 °F 14.7 °F 10.9 °F 60% 30.34 in 10.0 mi ENE 6.9 mph - N/A   Overcast
6:53 PM 21.9 °F 15.7 °F 12.0 °F 66% 30.35 in 10.0 mi NE 4.6 mph - N/A   Overcast
7:53 PM 21.9 °F 12.5 °F 14.0 °F 72% 30.31 in 10.0 mi NE 8.1 mph - N/A   Overcast
8:53 PM 21.9 °F 14.5 °F 15.1 °F 75% 30.28 in 6.0 mi NE 5.8 mph - 0.00 in Snow Light Snow
9:53 PM 21.9 °F 13.4 °F 16.0 °F 78% 30.25 in 6.0 mi NNE 6.9 mph - 0.00 in Snow Light Snow
10:02 PM 21.2 °F 10.1 °F 15.8 °F 80% 30.21 in 2.5 mi NE 10.4 mph - 0.00 in Snow Light Snow
10:06 PM 21.2 °F 10.9 °F 15.8 °F 80% 30.21 in 1.8 mi NE 9.2 mph - 0.00 in Snow Light Snow
10:30 PM 21.2 °F 12.6 °F 17.6 °F 86% 30.22 in 2.0 mi NNE 6.9 mph - 0.01 in Snow Light Snow
10:53 PM 21.0 °F 9.9 °F 17.1 °F 85% 30.22 in 2.0 mi NNE 10.4 mph - 0.01 in Snow Light Snow
11:53 PM 19.9 °F 7.9 °F 16.0 °F 85% 30.16 in 2.5 mi NNE 11.5 mph 21.9 mph 0.01 in Snow Light Snow